Date_and_time,latitude,longitude,wind_speed,RelWindDirFrom,WindDirFrom,air_pressure,air_temperature,relative_humidity,Temp,platform_speed_wrt_ground,air_pressure_at_mean_sea_level,platform_orientation
2018-05-27 23:50,50.6304483333333,-96.9807583333333,7.9,12.6,266,982.84,26.9,46,14.78,0.0,1008.10,167.4
2018-05-28 00:00,50.6304483333333,-96.9807583333333,6.4,11.3,261,983.00,26.6,47,14.26,0.0,1008.26,119.2
2018-05-28 00:10,50.6304466666667,-96.9807583333333,6.0,9.3,259,983.10,26.7,47,13.92,0.0,1008.35,119.2
2018-05-28 00:20,50.6304483333333,-96.98076,6.3,10.8,242,983.18,26.9,47,13.69,0.0,1008.42,119.2
2018-05-28 00:30,50.6304483333333,-96.98076,7.2,11.5,255,983.21,27.0,46,13.53,0.0,1008.44,119.2
2018-05-28 00:40,50.6304716666667,-96.980795,6.9,10.5,265,983.23,27.2,45,13.51,0.0,1008.47,119.2
2018-05-28 00:50,50.63046,-96.98077,5.1,8.9,266,983.27,27.2,45,13.67,0.0,1008.50,119.2
2018-05-28 01:00,50.6304333333333,-96.9807583333333,5.7,9.0,272,983.38,27.2,45,13.89,0.0,1008.61,221.3
2018-05-28 01:10,50.6304283333333,-96.980755,4.7,7.5,282,983.50,27.2,43,13.88,0.0,1008.73,221.3
2018-05-28 01:20,50.6304466666667,-96.9807733333333,5.4,8.0,291,983.56,26.7,41,14.33,0.0,1008.81,221.3
2018-05-28 01:30,50.6304433333333,-96.9807616666667,4.3,8.6,290,983.61,26.5,41,14.24,0.0,1008.85,221.3
2018-05-28 01:40,50.6304416666667,-96.98076,4.4,6.5,285,983.75,26.2,42,13.99,0.0,1009.01,221.3
2018-05-28 01:50,50.6304433333333,-96.9807366666667,5.7,17.8,349,983.91,25.7,45,14.06,0.0,1009.21,221.3
2018-05-28 02:00,50.6304466666667,-96.9807616666667,13.6,16.9,17,984.03,21.8,63,13.54,0.0,1009.50,0.0
2018-05-28 02:10,50.630445,-96.98076,12.3,15.6,1,984.26,21.2,63,13.96,0.0,1009.75,0.0
2018-05-28 02:20,50.63044,-96.9807633333333,13.2,16.0,360,984.36,20.7,66,12.92,0.0,1009.87,0.0
2018-05-28 02:30,50.6304366666667,-96.9807666666667,12.0,15.4,359,984.61,20.3,68,11.90,0.0,1010.13,0.0
2018-05-28 02:40,50.63043,-96.980755,15.0,18.5,2,984.78,19.9,69,12.41,0.0,1010.33,0.0
2018-05-28 02:50,50.6304316666667,-96.9807566666667,13.7,18.9,0,985.08,19.3,71,13.34,0.0,1010.67,0.0
2018-05-28 03:00,50.6304366666667,-96.9807566666667,13.4,16.5,360,985.30,18.8,73,12.82,0.0,1010.90,360.0
2018-05-28 03:10,50.63045,-96.98076,12.5,14.9,0,985.49,18.4,75,13.44,0.0,1011.14,360.0
2018-05-28 03:20,50.6304533333333,-96.98076,11.5,14.0,0,985.64,18.3,76,14.38,0.0,1011.31,360.0
2018-05-28 03:30,50.6304566666667,-96.98076,9.4,11.2,3,985.82,18.1,79,14.12,0.0,1011.52,360.0
2018-05-28 03:40,50.6304766666667,-96.98074,9.4,11.0,1,985.88,18.1,80,13.01,0.0,1011.60,360.0
2018-05-28 03:50,50.6304466666667,-96.9807283333333,9.1,11.1,357,985.92,17.8,79,11.81,0.0,1011.82,360.0
2018-05-28 04:00,50.6304333333333,-96.9807616666667,8.1,10.0,357,985.96,17.9,76,11.23,0.0,1011.89,0.0
2018-05-28 04:10,50.6304466666667,-96.9807583333333,8.0,10.4,357,986.05,18.1,71,11.50,0.0,1011.99,0.0
2018-05-28 04:20,50.6304466666667,-96.98076,7.3,11.5,356,986.18,18.1,68,11.32,0.0,1012.15,0.0
2018-05-28 04:30,50.630445,-96.9807583333333,6.4,8.8,352,986.33,17.9,66,10.61,0.0,1012.33,0.0
2018-05-28 04:40,50.6304416666667,-96.9807533333333,7.0,9.4,349,986.45,18.4,61,9.84,0.0,1012.46,0.0
2018-05-28 04:50,50.6304433333333,-96.9807533333333,7.5,10.0,350,986.51,18.8,59,9.77,0.0,1012.52,0.0
2018-05-28 05:00,50.6304516666667,-96.98077,7.3,9.7,352,986.61,18.6,59,10.06,0.0,1012.65,347.4
2018-05-28 05:10,50.63045,-96.98076,6.4,8.9,352,986.84,18.5,60,10.15,0.0,1012.89,347.4
2018-05-28 05:20,50.6304483333333,-96.9807516666667,6.4,8.9,355,987.01,18.5,62,10.14,0.0,1013.08,347.4
2018-05-28 05:30,50.6304466666667,-96.9807483333333,5.6,7.7,349,987.17,18.4,63,9.86,0.0,1013.25,347.4
2018-05-28 05:40,50.6304483333333,-96.9807483333333,6.0,9.2,352,987.22,18.6,61,9.75,0.0,1013.31,347.4
2018-05-28 05:50,50.6304466666667,-96.9807483333333,7.5,11.2,1,987.17,18.2,61,9.60,0.0,1013.27,347.4
2018-05-28 06:00,50.630445,-96.98075,4.9,7.4,344,987.29,17.7,63,9.48,0.0,1013.41,48.3
2018-05-28 06:10,50.6304466666667,-96.9807516666667,3.8,5.4,324,987.52,17.8,63,9.43,0.0,1013.63,48.3
2018-05-28 06:20,50.63045,-96.9807533333333,3.4,5.0,321,987.58,17.8,64,9.32,0.0,1013.71,48.3
2018-05-28 06:30,50.630445,-96.9807533333333,4.1,5.7,332,987.55,17.5,66,9.18,0.0,1013.66,48.3
2018-05-28 06:40,50.6304566666667,-96.980775,4.2,6.0,330,987.75,17.4,66,9.25,0.0,1013.86,48.3
2018-05-28 06:50,50.6304566666667,-96.98077,5.0,6.4,334,987.76,17.3,65,9.27,0.0,1013.88,48.3
2018-05-28 07:00,50.63043,-96.9807483333333,4.6,6.0,333,987.87,17.3,63,9.31,0.0,1014.00,167.4
2018-05-28 07:10,50.6304383333333,-96.9807483333333,4.9,6.9,333,988.07,17.5,61,9.35,0.0,1014.20,167.4
2018-05-28 07:20,50.6304433333333,-96.9807483333333,5.2,6.9,334,988.18,17.5,61,9.37,0.0,1014.31,167.4
2018-05-28 07:30,50.6304433333333,-96.98075,5.2,7.1,333,988.27,17.5,60,9.33,0.0,1014.39,167.4
2018-05-28 07:40,50.630445,-96.9807516666667,5.5,7.2,333,988.36,17.7,58,9.32,0.0,1014.50,167.4
2018-05-28 07:50,50.630445,-96.9807533333333,5.2,6.5,328,988.45,17.3,59,9.28,0.0,1014.63,167.4
2018-05-28 08:00,50.630445,-96.9807533333333,5.1,6.4,328,988.60,17.4,59,9.31,0.0,1014.78,167.4
2018-05-28 08:10,50.6304466666667,-96.9807533333333,4.7,6.0,326,988.82,17.1,61,9.33,0.0,1015.02,167.4
2018-05-28 08:20,50.6304466666667,-96.9807533333333,4.8,5.9,320,988.97,16.8,63,9.35,0.0,1015.20,167.4
2018-05-28 08:30,50.6304466666667,-96.9807533333333,5.1,6.4,322,988.92,16.5,65,9.39,0.0,1015.16,167.4
2018-05-28 08:40,50.6304466666667,-96.9807533333333,6.0,7.8,316,989.01,16.2,66,9.41,0.0,1015.27,167.4
2018-05-28 08:50,50.6304216666667,-96.9807516666667,6.0,7.5,317,989.12,15.7,67,9.42,0.0,1015.41,167.4
2018-05-28 09:00,50.6304466666667,-96.9807566666667,5.8,7.6,316,989.25,15.5,67,9.40,0.0,1015.54,347.4
2018-05-28 09:10,50.6304466666667,-96.980755,5.4,6.9,312,989.54,15.4,67,9.33,0.0,1015.84,347.4
2018-05-28 09:20,50.630435,-96.98075,5.3,7.1,308,989.72,15.4,66,9.26,0.0,1016.03,347.4
2018-05-28 09:30,50.6304383333333,-96.98075,5.8,7.3,316,989.80,15.3,66,9.22,0.0,1016.11,347.4
2018-05-28 09:40,50.6304416666667,-96.9807533333333,5.5,7.2,318,989.83,15.1,66,9.16,0.0,1016.17,347.4
2018-05-28 09:50,50.6304433333333,-96.9807516666667,6.0,7.7,318,989.87,15.1,65,9.23,0.0,1016.20,347.4
2018-05-28 10:00,50.630445,-96.9807516666667,6.3,8.1,322,989.84,15.2,63,9.37,0.0,1016.18,18.9
2018-05-28 10:10,50.6304466666667,-96.9807533333333,6.2,8.0,325,989.84,15.1,63,9.59,0.0,1016.20,18.9
2018-05-28 10:20,50.6304466666667,-96.980755,6.3,8.3,328,990.03,15.1,61,9.47,0.0,1016.40,18.9
2018-05-28 10:30,50.6304366666667,-96.9807616666667,6.6,8.6,333,990.02,15.4,59,9.50,0.0,1016.39,18.9
2018-05-28 10:40,50.63044,-96.980755,7.7,10.2,336,989.92,15.5,60,9.64,0.0,1016.31,18.9
2018-05-28 10:50,50.6304416666667,-96.98076,6.5,9.9,335,990.04,16.0,58,9.98,0.0,1016.42,18.9
2018-05-28 11:00,50.630445,-96.9807583333333,6.1,8.6,332,990.02,16.2,58,9.99,0.0,1016.39,270.0
2018-05-28 11:10,50.630445,-96.9807566666667,6.6,9.2,324,990.18,16.1,60,10.04,0.0,1016.57,270.0
2018-05-28 11:20,50.6304433333333,-96.980755,6.5,8.8,322,990.29,15.9,60,10.08,0.0,1016.70,270.0
2018-05-28 11:30,50.6304433333333,-96.980755,5.5,8.2,326,990.44,15.9,61,10.43,0.0,1016.85,270.0
2018-05-28 11:40,50.6304433333333,-96.9807566666667,6.0,8.3,321,990.74,16.0,61,10.45,0.0,1017.17,270.0
2018-05-28 11:50,50.630445,-96.9807583333333,6.6,9.3,335,990.64,16.0,62,10.49,0.0,1017.05,270.0
2018-05-28 12:00,50.630445,-96.98076,8.0,11.1,342,990.36,16.0,61,10.46,0.0,1016.77,360.0
2018-05-28 12:10,50.6304633333333,-96.9807683333333,6.7,10.2,348,990.33,16.4,59,10.42,0.0,1016.72,360.0
2018-05-28 12:20,50.6304483333333,-96.9807583333333,6.2,8.6,350,990.46,16.7,58,10.45,0.0,1016.83,360.0
2018-05-28 12:30,50.6304466666667,-96.980755,7.0,11.0,357,990.68,16.7,59,10.35,0.0,1017.05,360.0
2018-05-28 12:40,50.6304466666667,-96.9807566666667,10.8,13.6,2,990.69,16.6,59,10.46,0.0,1017.05,360.0
2018-05-28 12:50,50.630445,-96.9807583333333,10.0,13.6,1,990.85,16.5,60,10.48,0.0,1017.20,360.0
2018-05-28 13:00,50.630445,-96.9807583333333,10.0,14.2,0,990.97,16.5,62,10.25,0.0,1017.33,270.0
2018-05-28 13:10,50.6304433333333,-96.9807583333333,9.4,11.5,2,991.16,16.4,63,10.22,0.0,1017.54,270.0
2018-05-28 13:20,50.6304433333333,-96.9807583333333,10.8,13.9,4,991.25,16.3,64,10.07,0.0,1017.63,270.0
2018-05-28 13:30,50.6304416666667,-96.9807583333333,9.9,13.1,6,991.48,16.3,64,10.02,0.0,1017.87,270.0
2018-05-28 13:40,50.6304416666667,-96.9807583333333,8.5,10.2,10,991.71,16.2,66,10.22,0.0,1018.10,270.0
2018-05-28 13:50,50.63044,-96.9807583333333,7.4,9.5,16,992.07,16.2,67,10.41,0.0,1018.48,270.0
2018-05-28 14:00,50.6304133333333,-96.98076,7.4,8.9,18,992.24,15.9,73,10.81,0.0,1018.65,151.1
2018-05-28 14:10,50.63044,-96.9807666666667,7.8,9.3,13,992.27,15.7,75,10.89,0.0,1018.67,151.1
2018-05-28 14:20,50.6304416666667,-96.9807566666667,8.0,9.0,14,992.30,15.8,74,11.05,0.0,1018.70,151.1
2018-05-28 14:30,50.63044,-96.9807516666667,7.9,9.0,14,992.20,15.8,75,11.17,0.0,1018.60,151.1
2018-05-28 14:40,50.63044,-96.9807516666667,7.8,8.8,18,992.10,15.6,79,11.22,0.0,1018.51,151.1
2018-05-28 14:50,50.63044,-96.9807516666667,7.3,8.3,16,992.09,15.4,85,11.18,0.0,1018.50,151.1
2018-05-28 15:00,50.6304416666667,-96.980755,6.6,7.4,19,992.18,15.4,90,11.29,0.0,1018.60,0.0
2018-05-28 15:10,50.6304416666667,-96.9807516666667,7.4,8.6,15,992.18,15.5,92,11.35,0.0,1018.60,0.0
2018-05-28 15:20,50.63044,-96.9807533333333,7.4,8.0,16,992.22,15.7,90,11.24,0.0,1018.64,0.0
2018-05-28 15:30,50.63044,-96.980755,6.2,7.7,19,992.24,15.8,86,11.46,0.0,1018.66,0.0
2018-05-28 15:40,50.63044,-96.980755,6.3,7.0,22,992.22,15.9,86,11.53,0.0,1018.64,0.0
2018-05-28 15:50,50.63044,-96.980755,6.5,7.9,22,992.29,15.9,83,11.41,0.0,1018.72,0.0
2018-05-28 16:00,50.63044,-96.980755,8.9,10.8,20,992.10,16.0,77,11.38,0.0,1018.53,90.0
2018-05-28 16:10,50.63044,-96.980755,9.2,10.5,18,992.06,16.1,75,11.30,0.0,1018.48,90.0
2018-05-28 16:20,50.63044,-96.980755,8.1,9.5,19,992.17,16.3,76,11.33,0.0,1018.59,90.0
2018-05-28 16:30,50.63044,-96.980755,8.0,8.6,20,992.14,16.2,78,11.33,0.0,1018.56,90.0
2018-05-28 16:40,50.63044,-96.980755,8.4,9.4,19,992.04,16.2,75,11.10,0.0,1018.47,90.0
2018-05-28 16:50,50.6304416666667,-96.980755,9.6,10.8,18,991.73,16.2,74,11.09,0.0,1018.15,90.0
2018-05-28 17:00,50.6304416666667,-96.980755,9.4,10.5,18,991.59,16.4,74,11.14,0.0,1018.00,28.9
2018-05-28 17:10,50.6304416666667,-96.980755,9.2,10.5,16,991.42,16.6,71,11.28,0.0,1017.80,28.9
2018-05-28 17:20,50.6304416666667,-96.9807533333333,9.6,10.9,16,991.13,17.0,67,11.49,0.0,1017.49,28.9
2018-05-28 17:30,50.63044,-96.980755,9.8,11.7,17,991.03,17.3,66,11.54,0.0,1017.36,28.9
2018-05-28 17:40,50.63044,-96.980755,7.1,8.3,16,991.35,17.3,66,11.52,0.0,1017.69,28.9
2018-05-28 17:50,50.63044,-96.980755,7.7,8.5,23,991.37,17.7,61,11.69,0.0,1017.69,28.9
2018-05-28 18:00,50.63044,-96.980755,8.6,9.3,20,991.32,17.7,61,11.90,0.0,1017.62,90.0
2018-05-28 18:10,50.63044,-96.980755,8.1,8.9,15,991.42,18.0,60,11.93,0.0,1017.72,90.0
2018-05-28 18:20,50.630435,-96.9807383333333,8.7,10.9,13,991.45,18.8,51,12.00,0.0,1017.71,90.0
2018-05-28 18:30,50.6304383333333,-96.9807533333333,9.4,10.6,14,991.29,19.3,46,12.06,0.0,1017.52,90.0
2018-05-28 18:40,50.6304366666667,-96.9807516666667,9.8,10.7,14,991.33,19.4,46,12.06,0.0,1017.56,90.0
2018-05-28 18:50,50.6304366666667,-96.9807483333333,9.4,11.2,14,991.29,19.4,49,12.07,0.0,1017.51,90.0
2018-05-28 19:00,50.6304366666667,-96.98075,9.0,10.3,13,991.29,19.7,46,12.18,0.0,1017.49,167.4
2018-05-28 19:10,50.6304366666667,-96.9807516666667,8.6,10.0,12,991.25,20.2,44,12.32,0.0,1017.41,167.4
2018-05-28 19:20,50.6304383333333,-96.9807516666667,10.0,11.9,9,991.11,20.7,40,12.36,0.0,1017.23,167.4
2018-05-28 19:30,50.6304383333333,-96.9807516666667,9.2,11.1,9,991.21,21.0,38,12.25,0.0,1017.32,167.4
2018-05-28 19:40,50.6304466666667,-96.9807533333333,8.6,9.8,11,991.26,21.3,36,12.23,0.0,1017.34,167.4
2018-05-28 19:50,50.6304466666667,-96.9807516666667,9.0,10.3,13,991.20,21.3,36,12.22,0.0,1017.27,167.4
2018-05-28 20:00,50.6304466666667,-96.980755,8.1,10.3,14,991.22,21.3,37,12.29,0.0,1017.28,360.0
2018-05-28 20:10,50.6304483333333,-96.980755,7.9,9.1,15,991.23,21.3,38,12.51,0.0,1017.26,360.0
2018-05-28 20:20,50.6304466666667,-96.9807533333333,7.3,8.7,16,991.20,21.5,35,12.66,0.0,1017.19,360.0
2018-05-28 20:30,50.630445,-96.98074,6.3,7.2,20,991.22,21.5,35,12.68,0.0,1017.21,360.0
2018-05-28 20:40,50.6304433333333,-96.9807666666667,6.8,8.0,22,991.08,21.5,35,12.74,0.0,1017.07,360.0
2018-05-28 20:50,50.630445,-96.980755,6.7,7.3,21,991.08,21.3,38,12.83,0.0,1017.06,360.0
2018-05-28 21:00,50.6304533333333,-96.98076,7.9,8.9,22,990.94,21.4,38,13.01,0.0,1016.89,38.0
2018-05-28 21:10,50.6304416666667,-96.9807466666667,8.6,9.0,20,990.79,21.6,37,13.23,0.0,1016.70,38.0
2018-05-28 21:20,50.6304416666667,-96.9807466666667,8.5,8.9,21,990.74,21.8,35,13.21,0.0,1016.63,38.0
2018-05-28 21:30,50.630445,-96.9807533333333,8.4,8.8,22,990.56,21.8,36,13.10,0.0,1016.44,38.0
2018-05-28 21:40,50.630445,-96.980755,8.4,8.8,23,990.39,21.7,40,13.26,0.0,1016.26,38.0
2018-05-28 21:50,50.630445,-96.9807533333333,8.6,9.0,22,990.20,21.5,44,13.40,0.0,1016.08,38.0
2018-05-28 22:00,50.630445,-96.9807516666667,8.6,9.3,23,990.06,21.3,48,13.58,0.0,1015.94,38.0
2018-05-28 22:10,50.6304466666667,-96.9807516666667,7.7,8.5,23,989.96,21.2,52,13.54,0.0,1015.84,38.0
2018-05-28 22:20,50.630475,-96.980805,7.8,8.6,23,989.97,21.2,52,13.48,0.0,1015.84,38.0
2018-05-28 22:30,50.6304616666667,-96.9807716666667,7.5,8.2,25,989.88,21.2,53,13.27,0.0,1015.75,38.0
2018-05-28 22:40,50.6304633333333,-96.980765,7.4,7.8,26,989.78,21.1,55,13.21,0.0,1015.66,38.0
2018-05-28 22:50,50.6304616666667,-96.98076,7.2,7.8,27,989.69,21.0,57,13.61,0.0,1015.57,38.0
2018-05-28 23:00,50.6304616666667,-96.9807566666667,7.3,7.8,25,989.57,20.9,58,14.21,0.0,1015.44,360.0
2018-05-28 23:10,50.63046,-96.9807566666667,6.8,7.8,23,989.51,21.0,56,14.41,0.0,1015.37,360.0
2018-05-28 23:20,50.63044,-96.9807366666667,7.2,7.6,28,989.37,21.0,57,14.56,0.0,1015.23,360.0
2018-05-28 23:30,50.6304516666667,-96.98076,6.9,7.7,21,989.15,20.9,59,14.54,0.0,1015.01,360.0
